GW3643 Weather Reports


Display with metric or nautical units.
time (UTC)temp
F
wind
direction
speed
MPH
gust
MPH
rain 1hr
in
rain 24hr
in
rain mn
in
humidity
%
barometer
mb
20260504050545 51 275 0.0 5.0 0.00 0.00 0.00 75 1011.4
20260504045544 52 263 3.0 6.0 0.00 0.00 0.00 74 1011.4
20260504045044 52 195 1.0 4.0 0.00 0.00 0.00 73 1011.4
20260504044549 53 0 0.0 4.0 0.00 0.00 0.00 73 1011.4
20260504044042 53 232 1.0 4.0 0.00 0.00 0.00 73 1011.4
20260504043546 53 0 1.0 5.0 0.00 0.00 0.00 73 1011.5
20260504043056 53 238 2.0 5.0 0.00 0.00 0.00 73 1011.5
20260504042542 52 244 0.0 5.0 0.00 0.00 0.00 74 1011.5
20260504042048 52 211 2.0 4.0 0.00 0.00 0.00 74 1011.4
20260504041546 52 0 0.0 4.0 0.00 0.00 0.00 75 1011.5
20260504041042 52 0 1.0 4.0 0.00 0.00 0.00 75 1011.5
20260504040543 52 238 1.0 4.0 0.00 0.00 0.00 75 1011.6
20260504040128 52 0 0.0 3.0 0.00 0.00 0.00 75 1011.6
20260504035544 52 258 0.0 3.0 0.00 0.00 0.00 74 1011.6
20260504035045 52 289 0.0 4.0 0.00 0.00 0.00 74 1011.6
20260504034601 52 243 0.0 4.0 0.00 0.00 0.00 74 1011.6
20260504034042 52 247 0.0 4.0 0.00 0.00 0.00 74 1011.6
20260504033545 52 0 0.0 4.0 0.00 0.00 0.00 73 1011.7
20260504033051 53 257 1.0 7.0 0.00 0.00 0.00 73 1011.6
20260504032545 53 302 1.0 7.0 0.00 0.00 0.00 73 1011.6
20260504032046 53 257 2.0 7.0 0.00 0.00 0.00 73 1011.8
20260504031556 53 220 0.0 4.0 0.00 0.00 0.00 73 1011.7
20260504031051 53 0 0.0 3.0 0.00 0.00 0.00 73 1011.8
20260504030546 53 0 1.0 4.0 0.00 0.00 0.00 73 1011.8
20260504030050 53 0 1.0 4.0 0.00 0.00 0.00 72 1011.9
20260504025549 53 0 0.0 4.0 0.00 0.00 0.00 72 1011.9
20260504025045 53 313 2.0 5.0 0.00 0.00 0.00 72 1011.8
20260504024550 53 299 2.0 5.0 0.00 0.00 0.00 71 1011.7
20260504024048 53 291 1.0 4.0 0.00 0.00 0.00 72 1011.8
20260504023546 53 308 1.0 4.0 0.00 0.00 0.00 72 1011.8
20260504023050 53 308 1.0 4.0 0.00 0.00 0.00 71 1011.7
20260504022546 54 324 0.0 3.0 0.00 0.00 0.00 71 1011.7
20260504022047 54 0 0.0 4.0 0.00 0.00 0.00 70 1011.8
20260504021550 54 267 0.0 4.0 0.00 0.00 0.00 70 1011.9
20260504021046 54 265 1.0 8.0 0.00 0.00 0.00 69 1011.8
20260504020547 54 252 1.0 8.0 0.00 0.00 0.00 69 1011.7
20260504020107 55 334 1.0 5.0 0.00 0.00 0.00 69 1011.7
20260504015550 55 308 1.0 4.0 0.00 0.00 0.00 68 1011.8
20260504015045 55 265 1.0 4.0 0.00 0.00 0.00 68 1011.8
20260504014550 55 0 0.0 4.0 0.00 0.00 0.00 68 1011.9
20260504014045 55 207 0.0 4.0 0.00 0.00 0.00 67 1011.8
20260504013544 55 0 0.0 4.0 0.00 0.00 0.00 66 1011.9
20260504013049 55 0 0.0 4.0 0.00 0.00 0.00 66 1011.9
20260504012546 56 294 0.0 7.0 0.00 0.00 0.00 65 1011.9
20260504012046 56 0 1.0 7.0 0.00 0.00 0.00 65 1012.0
20260504011549 56 302 0.0 3.0 0.00 0.00 0.00 64 1011.9
20260504011046 56 0 0.0 3.0 0.00 0.00 0.00 64 1011.9
20260504010545 56 0 0.0 3.0 0.00 0.00 0.00 63 1011.9
20260504010054 57 305 1.0 4.0 0.00 0.00 0.00 62 1011.9
20260504005545 57 0 1.0 4.0 0.00 0.00 0.00 62 1012.0
20260504005049 57 238 1.0 5.0 0.00 0.00 0.00 61 1012.0
20260504004555 57 0 1.0 5.0 0.00 0.00 0.00 61 1012.0
20260504004046 57 229 1.0 4.0 0.00 0.00 0.00 60 1012.0
20260504003546 57 251 1.0 4.0 0.00 0.00 0.00 61 1012.0
20260504003053 57 256 0.0 4.0 0.00 0.00 0.00 61 1012.1
20260504002546 57 0 0.0 4.0 0.00 0.00 0.00 62 1012.1
20260504002047 57 0 0.0 4.0 0.00 0.00 0.00 62 1012.2
20260504001553 57 311 1.0 4.0 0.00 0.00 0.00 62 1012.2
20260504001046 57 0 0.0 3.0 0.00 0.00 0.00 62 1012.3
20260504000547 57 306 0.0 2.0 0.00 0.00 0.00 62 1012.3
20260504000056 57 0 0.0 3.0 0.00 0.00 0.00 63 1012.3
20260503235548 57 322 0.0 3.0 0.00 0.00 0.00 62 1012.4
20260503235049 57 312 0.0 3.0 0.00 0.00 0.00 62 1012.5
20260503234624 58 315 0.0 6.0 0.00 0.00 0.00 62 1012.5
20260503234051 58 332 1.0 6.0 0.00 0.00 0.00 61 1012.5
20260503233548 59 359 3.0 7.0 0.00 0.00 0.00 59 1012.5
20260503233053 59 245 1.0 7.0 0.00 0.00 0.00 57 1012.4
20260503232545 59 164 1.0 5.0 0.00 0.00 0.00 56 1012.4
20260503232046 59 249 0.0 5.0 0.00 0.00 0.00 56 1012.5
20260503231559 59 195 1.0 6.0 0.00 0.00 0.00 55 1012.4
20260503231047 59 222 2.0 6.0 0.00 0.00 0.00 55 1012.4
20260503230548 59 0 0.0 4.0 0.00 0.00 0.00 56 1012.4
20260503230051 59 248 0.0 5.0 0.00 0.00 0.00 56 1012.5
20260503225545 59 249 2.0 5.0 0.00 0.00 0.00 57 1012.5
20260503225048 59 243 1.0 5.0 0.00 0.00 0.00 57 1012.5
20260503224552 59 233 2.0 5.0 0.00 0.00 0.00 57 1012.5
20260503224047 59 0 1.0 7.0 0.00 0.00 0.00 57 1012.6
20260503223547 59 211 1.0 8.0 0.00 0.00 0.00 57 1012.7
20260503223051 59 214 4.0 8.0 0.00 0.00 0.00 57 1012.7
20260503222550 59 192 4.0 8.0 0.00 0.00 0.00 57 1012.7
20260503222045 59 212 2.0 7.0 0.00 0.00 0.00 57 1012.6
20260503221600 59 209 2.0 5.0 0.00 0.00 0.00 57 1012.8
20260503221043 59 211 2.0 8.0 0.00 0.00 0.00 57 1012.6
20260503220546 59 216 2.0 8.0 0.00 0.00 0.00 57 1012.6
20260503220057 59 180 4.0 8.0 0.00 0.00 0.00 57 1012.6
20260503215545 60 218 1.0 7.0 0.00 0.00 0.00 56 1012.7
20260503215045 60 205 2.0 7.0 0.00 0.00 0.00 56 1012.6
20260503214547 60 204 2.0 6.0 0.00 0.00 0.00 56 1012.5
20260503214050 60 0 2.0 6.0 0.00 0.00 0.00 56 1012.6
20260503213545 60 234 1.0 7.0 0.00 0.00 0.00 56 1012.6
20260503213051 60 0 1.0 7.0 0.00 0.00 0.00 56 1012.5
20260503212547 60 256 0.0 5.0 0.00 0.00 0.00 56 1012.5
20260503212046 60 202 2.0 5.0 0.00 0.00 0.00 56 1012.4
20260503211550 60 235 1.0 5.0 0.00 0.00 0.00 56 1012.4
20260503211046 60 240 1.0 5.0 0.00 0.00 0.00 55 1012.3
20260503210546 60 186 1.0 4.0 0.00 0.00 0.00 55 1012.3
20260503210049 60 261 1.0 4.0 0.00 0.00 0.00 55 1012.3
20260503205550 60 305 1.0 4.0 0.00 0.00 0.00 55 1012.2
20260503205048 60 0 1.0 5.0 0.00 0.00 0.00 55 1012.2
20260503204558 60 0 1.0 5.0 0.00 0.00 0.00 55 1012.1
20260503204045 60 264 2.0 8.0 0.00 0.00 0.00 55 1012.2
20260503203547 60 235 2.0 8.0 0.00 0.00 0.00 55 1012.1
20260503203100 61 226 1.0 8.0 0.00 0.00 0.00 54 1012.1
20260503202546 61 230 1.0 4.0 0.00 0.00 0.00 55 1012.0
20260503202044 61 274 0.0 4.0 0.00 0.00 0.00 55 1011.9
20260503201559 61 0 1.0 4.0 0.00 0.00 0.00 55 1011.8
20260503201047 61 0 1.0 4.0 0.00 0.00 0.00 55 1011.7
20260503200548 61 279 1.0 4.0 0.00 0.00 0.00 54 1011.6
20260503200057 61 315 1.0 5.0 0.00 0.00 0.00 55 1011.6
20260503195551 61 256 2.0 6.0 0.00 0.00 0.00 55 1011.5
20260503195049 61 296 2.0 6.0 0.00 0.00 0.00 54 1011.5
20260503194558 61 292 1.0 5.0 0.00 0.00 0.00 55 1011.5
20260503194045 61 0 1.0 6.0 0.00 0.00 0.00 55 1011.4
20260503193547 61 0 2.0 8.0 0.00 0.00 0.00 55 1011.4
20260503193053 61 0 1.0 8.0 0.00 0.00 0.00 56 1011.4
20260503192544 61 278 2.0 8.0 0.00 0.00 0.00 55 1011.4
20260503192044 62 0 1.0 9.0 0.00 0.00 0.00 56 1011.4
20260503191554 62 332 1.0 9.0 0.00 0.00 0.00 57 1011.4
20260503191047 62 328 2.0 8.0 0.00 0.00 0.00 57 1011.2
20260503190545 62 319 2.0 8.0 0.00 0.00 0.00 58 1011.2
20260503190051 62 0 2.0 8.0 0.00 0.00 0.00 58 1011.1
20260503185545 62 288 2.0 8.0 0.00 0.00 0.00 58 1011.0
20260503185049 62 258 3.0 8.0 0.00 0.00 0.00 58 1011.0
20260503184552 63 326 2.0 9.0 0.00 0.00 0.00 57 1011.0
20260503184048 63 7 1.0 9.0 0.00 0.00 0.00 57 1011.1
20260503183547 63 308 2.0 8.0 0.00 0.00 0.00 57 1011.0
20260503183051 63 230 2.0 8.0 0.00 0.00 0.00 56 1011.0
20260503182544 63 281 2.0 8.0 0.00 0.00 0.00 56 1011.1
20260503182047 63 322 2.0 14.0 0.00 0.00 0.00 55 1011.0
20260503181557 64 276 2.0 14.0 0.00 0.00 0.00 55 1010.9
20260503181047 64 277 4.0 10.0 0.00 0.00 0.00 55 1010.8
20260503180545 64 317 1.0 11.0 0.00 0.00 0.00 55 1010.9
20260503180059 64 297 2.0 11.0 0.00 0.00 0.00 54 1010.9
20260503175545 64 313 2.0 11.0 0.00 0.00 0.00 53 1010.9
20260503175045 65 333 1.0 11.0 0.00 0.00 0.00 53 1010.9
20260503174557 65 324 3.0 14.0 0.00 0.00 0.00 52 1011.0
20260503174046 65 178 3.0 16.0 0.00 0.00 0.00 50 1011.0
20260503173546 65 270 5.0 16.0 0.00 0.00 0.00 49 1011.0
20260503173054 65 227 4.0 16.0 0.00 0.00 0.00 51 1011.0
20260503172545 65 222 4.0 11.0 0.00 0.00 0.00 52 1011.0
20260503172045 66 309 3.0 14.0 0.00 0.00 0.00 51 1011.1
20260503171550 65 225 4.0 14.0 0.00 0.00 0.00 50 1011.0
20260503171047 65 284 5.0 14.0 0.00 0.00 0.00 49 1011.1
20260503170547 66 281 3.0 12.0 0.00 0.00 0.00 49 1011.1
20260503150545 68 271 7.0 19.0 0.00 0.00 0.00 45 1011.0
20260503131044 68 14 3.0 12.0 0.00 0.00 0.00 48 1011.9
20260503130549 68 232 4.0 15.0 0.00 0.00 0.00 48 1011.9
20260503110542 65 257 3.0 10.0 0.00 0.15 0.00 61 1013.0
20260503110107 66 238 2.0 10.0 0.00 0.15 0.00 59 1013.1
20260503081553 58 243 0.0 5.0 0.00 0.33 0.00 79 1013.4
20260503081041 57 238 2.0 5.0 0.00 0.33 0.00 79 1013.5
20260503080544 57 236 1.0 4.0 0.00 0.33 0.00 79 1013.5
20260503072542 57 211 3.0 6.0 0.00 0.39 0.00 79 1013.5
20260503072043 57 197 0.0 4.0 0.00 0.39 0.00 81 1013.6
20260503071612 57 186 1.0 5.0 0.00 0.39 0.00 81 1013.5
20260503071042 56 196 1.0 5.0 0.00 0.39 0.00 82 1013.5
20260503070546 57 196 1.0 5.0 0.00 0.39 0.00 82 1013.5
20260503060110 54 0 0.0 2.0 0.00 0.49 0.00 87 1013.3
20260503055043 54 0 1.0 3.0 0.00 0.49 0.00 86 1013.4
20260503054558 55 0 1.0 8.0 0.00 0.49 0.00 85 1013.4
20260503054044 55 351 2.0 11.0 0.00 0.49 0.00 85 1013.4
20260503053542 56 305 4.0 11.0 0.00 0.49 0.00 83 1013.4
20260503053051 56 0 0.0 3.0 0.00 0.49 0.00 84 1013.3
20260503052541 56 0 1.0 5.0 0.00 0.49 0.00 84 1013.1
20260503052042 56 118 1.0 8.0 0.00 0.49 0.00 84 1013.1